Location: Unspecified
(47.5840°N, 122.3000°W)
Time: 18:00:42
(UTC+00:00)

USA 59 Rocket - Pass Details

Date: 21 March 2026
Orbit: 368 x 1667 km, 63.3° (Epoch: 14 April)

Event Time Altitude Azimuth Distance (km) Brightness Sun altitude
Exits shadow 12:40:31 27° 229° (SW) 1,126 0.9 -15.6°
Drops below altitude 10° 12:44:13 10° 179° (S) 2,146 2.7 -15.0°
Sets 12:47:15 0° 168° (SSE) 3,306 3.7 -14.5°
